Погода в Санта-Барбаре

Венесуэла     8°59′28″N   71°53′55″W
темп.,
°C
ветер,
м/с
пор.,
м/с
влажн.,
%
обл.,
%
осадки,
мм/ч
давл.,
гПа
погр.,
м
10 апреля, сб
сб1023:00+25с1187100 0.4 101213
02:00+24зсз229296 0.9 101142
05:00+23зюз229791 1.1 101051
08:00+24юз2393100 1.1 1012209
11:00+29з227241 0.1 1012924
14:00+32сз225763 0.6 10091534
17:00+30в446774 1.2 1007553
20:00+26вюв118581 1.7 100812
11 апреля, вс
вс1123:00+24зюз2293100 3.1 101145
02:00+24юз0195100 4.7 101018
05:00+23юз1296100 1.0 100936
08:00+24ююз229298 1.0 1010205
11:00+29з227367 0.1 1011908
14:00+32з1157100 0.1 10071520
17:00+30св446970 0.3 1006568
20:00+26всв34865 0.3 100774
12 апреля, пн
пн1223:00+24ссв239065 0.6 101050
02:00+24зсз2292100 1.3 100940
05:00+24зюз229486 0.0 100824
08:00+25зюз118999 0.0 1010177
11:00+30сз227075 0.0 10101017
14:00+33ссз115587 0.1 10071607
17:00+31всв4466100 0.0 1005595
20:00+27в3580100 0.0 100796
13 апреля, вт
вт1323:00+26юв1180100 0.6 100911
02:00+25зсз2288100 0.6 100832
05:00+24зсз1191100 0.0 100814
08:00+25ююз2385100 0.0 1010169
11:00+30зсз2269100 0.0 1010854
14:00+33з115469 0.0 10071519
17:00+33всв335799 0.1 10051045
20:00+27всв348072 0.2 100773
14 апреля, ср
ср1423:00+26ссв1286100 2.7 100913
02:00+25сз119090 4.1 100820
05:00+25юз229397 1.4 100831
08:00+25зюз2390100 1.8 1010181
11:00+30зсз2266100 0.0 1010903
14:00+33з1153100 0.0 10071545
17:00+33всв325643 0.0 10051088
20:00+28всв2378100 0.1 100744